If you wish to contribute or participate in the discussions about articles you are invited to join SKYbrary as a registered user

 Actions

Coronel FAP Carlos Ciriani Santa Rosa International Airport

From SKYbrary Wiki

SPTN
Airport
ICAO: SPTN – IATA: TCQ
Summary
Name Coronel FAP Carlos Ciriani Santa Rosa International Airport
Region South America and Caribbean
Territory Peru PE.gif
Location Tcana, Tacna
Serving Tacna
Elevation 468.782 m
1,538 ft
1,538 ft468.782 m
Type medium airport
Coordinates 18° 3' 12.00" S, 70° 16' 33.00" W
Runways
Designator Length Width Surface ROPS
2/20 2500 m8,202.1 ft
45 m147.638 ft
ASP /


METAR
Observation SPTN 242300Z 20008KT 9999 SCT040 BKN070 24/18 Q1014 RMK PP000
Station Tacna
Date/Time 24 February 2020 23:00:00
Wind direction 200°
Wind speed 08 kts
Lowest cloud amount scattered clouds
Temperature 24°C
Dew point 18°C
Humidity 69%
QNH 1014 hPa
Weather condition n/a

Airport serving Tacna, Peru.

Climatology

Mild Desert climate (Köppen climate classification BWh).

Maps

Terrain

Loading map...

Airport Layout

Loading map...


Accidents & Serious Incidents at or in vicinity of SPTN

None on SKYbrary